Regional Weather Roundup
Issued by NWS

Home | Current Version | Previous Version | Graphics & Text | Print | Product List | Glossary On
Versions: 1 2 3 4 5 6 7 8 9 10 11 12 13 14 15 16 17 18 19 20 21 22 23 24 25 26 27 28 29 30 31 32 33 34 35 36 37 38 39 40 41 42 43 44 45 46 47 48 49 50
265
ASUS43 KIND 171500
RWRIN

WEATHER ROUNDUP FOR INDIANA
NATIONAL WEATHER SERVICE INDIANAPOLIS IN
1100 AM EDT TUE OCT 17 2017

NOTE: "FAIR" INDICATES FEW OR NO CLOUDS BELOW 12,000 FEET WITH NO
SIGNIFICANT WEATHER AND/OR OBSTRUCTIONS TO VISIBILITY.

* - STATION DOES NOT REPORT WEATHER SUCH AS PRECIPITATION OR FOG.

+ - STATION NOT QUALITY CONTROLLED BY THE NATIONAL WEATHER SERVICE.
    USE DATA WITH CAUTION...ESPECIALLY DEWPOINT AND RELATIVE
    HUMIDITY OBSERVATIONS.

INZ001>003-010>013-019-020-171600-
NORTHWEST INDIANA

CITY           SKY/WX    TMP DP  RH WIND       PRES   REMARKS
GARY /AIRPORT/ MOSUNNY   57  39  51 SW12      30.23S
MICHIGAN CITY+ SUNNY     55  43  62 SW9G16    30.24R
MONTICELLO +   SUNNY     57  37  47 SW16G22   30.30S
RENSSELAER +   SUNNY     59  32  36 SW15      30.29S

$$

LMZ046-743>745-171600-
SOUTHERN LAKE MICHIGAN

STATION/POSITION TIME  TEMP    WIND        PRES    WAVE
                       AIR SEA DIR/SP/G            HT
                 (UTC) (F)     (DEG/KT/KT) (MB)    (FT)
BURNS HARBOR     1440   57     210/ 14/ 18 1023.7F
MICHIGAN CITY    1430   55     190/ 15/ 18   N/A
5NW MICH CITY    1440   56 57  220/ 17/ 23   N/A     3

$$

INZ004-005-014>016-021>024-171600-
NORTH CENTRAL INDIANA

CITY           SKY/WX    TMP DP  RH WIND       PRES   REMARKS
ELKHART        SUNNY     55  41  58 SW9       30.24S
GOSHEN         SUNNY     56  40  55 SW15G23   30.25F
PERU/GRISSOM   SUNNY     58  40  50 SW18      30.30
SOUTH BEND     SUNNY     55  42  61 SW17      30.25R

$$

INZ006>009-017-018-025>027-171600-
NORTHEAST INDIANA

CITY           SKY/WX    TMP DP  RH WIND       PRES   REMARKS
FORT WAYNE     MOSUNNY   58  38  47 SW18      30.30F
KENDALLVILLE + SUNNY     56  41  56 SW15G21   30.26S

$$

INZ028-029-035-036-043>045-051>053-171600-
WEST CENTRAL INDIANA

CITY           SKY/WX    TMP DP  RH WIND       PRES   REMARKS
GREENCASTLE +  SUNNY     55  37  50 SW7       30.36S
LAFAYETTE      NOT AVBL
TERRE HAUTE    SUNNY     57  42  57 SW6       30.37S

$$

INZ030>032-037>040-046>048-054>057-064-065-171600-
CENTRAL INDIANA

CITY           SKY/WX    TMP DP  RH WIND       PRES   REMARKS
COLUMBUS       MOSUNNY   55  39  54 S7        30.38S
INDIANAPOLIS   MOSUNNY   56  42  59 SW9       30.36S
-EAGLE CREEK   SUNNY     57  40  52 SW9       30.34S
KOKOMO +       SUNNY     59  39  47 SW18      30.32S
MT COMFORT *+  SUNNY     57  45  62 SW7       30.36R
SHELBYVILLE    SUNNY     57  40  52 S8        30.36S

$$

INZ033-034-041-042-049-050-058-059-171600-
EAST CENTRAL INDIANA

CITY           SKY/WX    TMP DP  RH WIND       PRES   REMARKS
MUNCIE         SUNNY     60  38  43 SW9G18    30.33S
RICHMOND +     SUNNY     55  37  50 SW13      30.37S

$$

INZ060-061-067>069-081>083-085>088-171600-
SOUTHWEST INDIANA

CITY           SKY/WX    TMP DP  RH WIND       PRES   REMARKS
EVANSVILLE     SUNNY     56  44  64 CALM      30.40S
HUNTINGBURG +  SUNNY     57  44  62 S6        30.39F

$$

INZ062-063-066-070>080-084-089>092-171600-
SOUTH CENTRAL AND SOUTHEAST INDIANA

CITY           SKY/WX    TMP DP  RH WIND       PRES   REMARKS
BLOOMINGTON    SUNNY     58  37  45 SW10      30.37S
MADISON *+     SUNNY     55  43  62 S5        30.41S
SEYMOUR +      SUNNY     55  43  62 S3        30.39S

$$





USA.gov is the U.S. government's official web portal to all federal, state and local government web resources and services.